Regional Weather Roundup
Issued by NWS State College, PA

Home | Current Version | Previous Version | Text Only | Print | Product List | Glossary On
Versions: 1 2 3 4 5 6 7 8 9 10 11 12 13 14 15 16 17 18 19 20 21 22 23 24 25 26 27 28 29 30 31 32 33 34 35 36 37 38 39 40 41 42 43 44 45 46 47 48 49 50
000
ASUS41 KCTP 120503
RWRCTP

REGIONAL WEATHER ROUNDUP
NATIONAL WEATHER SERVICE STATE COLLEGE PA
100 AM EDT SAT JUL 12 2014

Note: "fair" indicates few or no clouds below 12,000 feet with no
significant weather and/or obstructions to visibility.

* = STATION THAT DOES NOT REPORT PRECIPITATION /E.G. RAIN...SNOW...ETC/
    THUNDER OR FOG.

PAZ002>004-007>009-013>016-020>023-029>032-120600-
WESTERN PENNSYLVANIA

CITY           SKY/WX    TMP DP  RH WIND       PRES   REMARKS
ERIE           CLEAR     66  53  63 CALM      30.19F
MEADVILLE      PTCLDY    63  54  72 CALM      30.22S
FRANKLIN*      PTCLDY    64  55  72 NE3       30.24S
NEW CASTLE       N/A     63  62  96 CALM      30.21S
BEAVER COUNTY  NOT AVBL
BUTLER*        PTCLDY    64  61  88 CALM      30.22S
PITTSBURGH INT MOCLDY    70  62  76 CALM      30.21S
PITTSBURGH     CLEAR     73  57  57 SW6       30.20S
INDIANA*       CLOUDY    68  63  83 CALM      30.26S
LATROBE        CLEAR     66  63  88 CALM      30.22S
WASHINGTON CO* PTCLDY    59  57  94 CALM      30.22S
$$

PAZ004>006-010>012-017>019-024>028-033>037-041-042-045-046-049>053-120600-
CENTRAL PENNSYLVANIA

CITY           SKY/WX    TMP DP  RH WIND       PRES   REMARKS
BRADFORD       PTCLDY    59  56  89 CALM      30.26S
DUBOIS         CLEAR     69  60  73 SE6       30.23S
CLEARFIELD     PTCLDY    62  60  93 N5        30.24S
JOHNSTOWN      CLEAR     65  59  81 SW6       30.26S
ALTOONA        CLEAR     68  63  84 CALM      30.25S
STATE COLLEGE  CLEAR     65  60  85 CALM      30.23S
WILLIAMSPORT   CLEAR     65  59  81 CALM      30.20S
SELINSGROVE    CLEAR     64  62  93 CALM      30.22S
FT INDIANTOWN  PTCLDY    65  65 100 NE3       30.23S
CAPITAL CITY   MOCLDY    70  64  81 SW3       30.21S
HARRISBURG     PTCLDY    74  66  76 E9        30.21R
YORK           PTCLDY    69  65  86 CALM      30.22S
$$

PAZ038>040-043-044-047-048-054-055-060>062-067>071-120600-
EASTERN PENNSYLVANIA

CITY           SKY/WX    TMP DP  RH WIND       PRES   REMARKS
SCRANTON       CLEAR     66  59  78 E6        30.24S
MOUNT POCONO   CLEAR     58  55  90 CALM      30.29R
ALLENTOWN      CLEAR     70  64  81 CALM      30.23S
QUAKERTOWN*    CLEAR     66  64  94 CALM      30.25S
READING        CLEAR     73  66  78 S5        30.22R
LANCASTER      CLEAR     69  66  90 E3        30.23S
COATESVILLE    CLEAR     68  68 100 CALM      30.26R
POTTSTOWN      CLEAR     69  67  93 CALM      30.25S
BLUE BELL      CLEAR     68  64  88 CALM      30.23S
DOYLESTOWN     PTCLDY    67  63  87 CALM      30.23S
WILLOW GROVE   NOT AVBL
NORTH PHILA    MOCLDY    75  60  59 S3        30.25R
PHILADELPHIA   MOCLDY    75  59  57 S3        30.24R
$$


USA.gov is the U.S. government's official web portal to all federal, state and local government web resources and services.